Voltar ao catálogo

MIDAS 4 DEB

AtivoPO
NORAD 2371·DEBRIS·🇺🇸 United States

Lançado Oct 21, 1961 de Vandenberg Space Force Base

Loading…

Próximas Passagens (próximas 24 horas)

TLE

ObsoletoSource: Space-Track

Época: Aug 31, 2026, 08:46 UTC

1 02371U 61028F   26243.36565817 -.00000745  00000-0 -28335+0 0  9996
2 02371  95.8368 317.0087 0557125 108.4039 257.8195  8.70051063 35667

Acompanhe MIDAS 4 DEB em tempo real com AllMySat

Download on the App Store